Location: Stanford
(52.2833°N, 2.4333°W)
Time: 23:44:32
(UTC+00:00)

SJ-11-01 - Pass Details

Date: 22 January 2021
Orbit: 684 x 701 km, 98.0° (Epoch: 01 March)

Event Time Altitude Azimuth Distance (km) Brightness Sun altitude
Rises 18:30:54 0° 155° (SSE) 3,057 7.5 -16.7°
Reaches altitude 10° 18:33:09 10° 153° (SSE) 2,142 6.6 -17.1°
Maximum altitude 18:37:48 67° 72° (ENE) 749 4.2 -17.8°
Drops below altitude 10° 18:42:28 10° 350° (N) 2,149 6.8 -18.5°
Sets 18:44:44 0° 348° (NNW) 3,068 7.7 -18.8°
